Regional Weather Roundup
Issued by NWS State College, PA

Home | Current Version | Previous Version | Graphics & Text | Print | Product List | Glossary Off
Versions: 1 2 3 4 5 6 7 8 9 10 11 12 13 14 15 16 17 18 19 20 21 22 23 24 25 26 27 28 29 30 31 32 33 34 35 36 37 38 39 40 41 42 43 44 45 46 47 48 49 50

000
ASUS41 KCTP 180310
RWRCTP

REGIONAL WEATHER ROUNDUP
NATIONAL WEATHER SERVICE STATE COLLEGE PA
1100 PM EDT THU APR 17 2014

Note: "fair" indicates few or no clouds below 12,000 feet with no
significant weather and/or obstructions to visibility.

* = STATION THAT DOES NOT REPORT PRECIPITATION /E.G. RAIN...SNOW...ETC/
    THUNDER OR FOG.

PAZ002>004-007>009-013>016-020>023-029>032-180400-
WESTERN PENNSYLVANIA

CITY           SKY/WX    TMP DP  RH WIND       PRES   REMARKS
ERIE           CLEAR     53  27  36 SE15G22   30.33R
MEADVILLE      CLEAR     50  27  40 VRB6      30.35R
FRANKLIN*      CLEAR     46  25  42 SE10G21   30.39R
NEW CASTLE     FAIR      51  27  39 SE5       30.38R
BEAVER COUNTY  NOT AVBL
BUTLER*        CLEAR     48  25  40 SE8       30.39R
PITTSBURGH INT PTCLDY    53  26  35 SE10      30.37R
PITTSBURGH     CLEAR     51  26  37 SE10      30.38R
INDIANA*       CLEAR     46  27  46 SE10G17   30.40S
LATROBE        CLEAR     48  28  46 E9G17     30.39R
WASHINGTON CO* CLEAR     50  27  40 SE7       30.40R
$$

PAZ004>006-010>012-017>019-024>028-033>037-041-042-045-046-049>053-180400-
CENTRAL PENNSYLVANIA

CITY           SKY/WX    TMP DP  RH WIND       PRES   REMARKS
BRADFORD       CLEAR     41  21  44 SE7       30.40F
DUBOIS         CLEAR     45  25  45 SE10      30.40S
CLEARFIELD     CLEAR     44  26  49 SE5       30.44F
JOHNSTOWN      CLEAR     40  26  57 SE9G20    30.40F
ALTOONA        CLEAR     43  31  62 SE10      30.46F
STATE COLLEGE  CLEAR     45  24  44 S5        30.48S
WILLIAMSPORT   CLEAR     45  28  51 E10G23    30.51S
SELINSGROVE    CLEAR     44  29  55 SE10      30.55R
FT INDIANTOWN  NOT AVBL
CAPITAL CITY   MOCLDY    45  32  60 SE14      30.56S
HARRISBURG     MOCLDY    45  32  60 SE14      30.56S
YORK           PTCLDY    42  32  67 SE10      30.57R
$$

PAZ038>040-043-044-047-048-054-055-060>062-067>071-180400-
EASTERN PENNSYLVANIA

CITY           SKY/WX    TMP DP  RH WIND       PRES   REMARKS
SCRANTON       CLEAR     38  26  62 VRB5      30.54S
MOUNT POCONO   CLEAR     31  25  78 S5        30.52F
ALLENTOWN      CLEAR     38  28  67 E5        30.59F
QUAKERTOWN*    CLEAR     37  28  70 E3        30.60F
READING        CLEAR     41  27  57 SE8       30.57F
LANCASTER      CLEAR     37  29  72 SE6       30.57F
COATESVILLE    CLEAR     37  27  65 SE6       30.58F
POTTSTOWN      CLEAR     37  29  72 E3        30.60F
BLUE BELL      CLEAR     37  30  75 CALM      30.59F
DOYLESTOWN     CLEAR     35  29  78 CALM      30.59F
WILLOW GROVE   NOT AVBL
NORTH PHILA    CLEAR     38  28  67 NE5       30.62F
PHILADELPHIA   PTCLDY    38  28  67 E8        30.61F
$$



USA.gov is the U.S. government's official web portal to all federal, state and local government web resources and services.